Hourly Data Report for November 02, 2019

OTTAWA INTL A
ONTARIO
Current Station Operator: NAVCAN

45°19'00.000" N
75°40'00.000" W
114.90 m
6106001
71628
YOW

Download Data

Hourly Data (November 2019)
Hourly Data Report for November 2, 2019
TIME Temp Definition
°C
Dew Point Definition
°C
Rel Hum Definition
%
Wind Dir Definition
10's deg

Wind Spd Definition
km/h
Visibility Definition
km
Stn Press Definition
kPa
Hmdx Definition


Wind Chill Definition


Weather Definition


00:00 -2.8 -5.5 82 19 8 24.1 100.98   -6 LegendNANA
01:00 -3.2 -5.1 87 19 9 24.1 100.95   -7 Mainly Clear
02:00 -2.5 -4.3 87 15 5 24.1 100.95   -4 LegendNANA
03:00 -2.0 -3.6 89 36 2 24.1 100.91   -3 LegendNANA
04:00 -1.2 -3.7 84 7 3 24.1 100.88   -2 Cloudy
05:00 -1.3 -3.6 84 16 8 24.1 100.88   -4 LegendNANA
06:00 -0.8 -3.8 80 9 8 24.1 100.83   -4 LegendNANA
07:00 -1.1 -3.7 83 9 9 24.1 100.81   -4 Mostly Cloudy
08:00 0.0 -3.2 79 10 9 24.1 100.76   -3 LegendNANA
09:00 0.7 -2.5 79 11 11 24.1 100.74     LegendNANA
10:00 1.6 -1.6 79 12 9 24.1 100.67     Cloudy
11:00 2.6 -0.6 80 11 9 24.1 100.59     LegendNANA
12:00 3.4 1.3 86 10 9 16.1 100.48     Rain Showers
13:00 3.3 1.8 89 13 15 16.1 100.39     Rain Showers
14:00 3.4 2.2 92 14 12 12.9 100.34     Rain Showers
15:00 3.5 2.5 93 16 11 8.1 100.28     Rain,Fog
16:00 3.4 2.4 93 13 9 8.1 100.24     Rain,Fog
17:00 3.2 2.5 95 12 8 6.4 100.25     Rain,Fog
18:00 3.2 2.6 96 12 12 8.1 100.23     Rain,Fog
19:00 3.4 2.9 96 19 10 11.3 100.20     Rain
20:00 3.4 2.5 93 16 11 12.9 100.12     Rain
21:00 3.3 2.6 95 16 7 12.9 100.07     Rain
22:00 2.8 2.1 95 21 7 16.1 100.02     Mostly Cloudy
23:00 2.8 1.8 93 23 10 16.1 100.02     LegendNANA

Notes on Data Quality.

Legend

  • E = Estimated
  • M = Missing
  • NA = Not Available*
  • [empty] = Indicates an unobserved value
Date modified: